Regional Weather Roundup
Issued by NWS Grand Forks, ND

Home | Current Version | Previous Version | Graphics & Text | Print | Product List | Glossary On
Versions: 1 2 3 4 5 6 7 8 9 10 11 12 13 14 15 16 17 18 19 20 21 22 23 24 25 26 27 28 29 30 31 32 33 34 35 36 37 38 39 40 41 42 43 44 45 46 47 48 49 50
000
ASUS43 KFGF 261831
RWRFGF
PRAIRIE TO PINES  WEATHER ROUNDUP
NATIONAL WEATHER SERVICE EASTERN NORTH DAKOTA/GRAND FORKS ND
1200 PM CST MON JAN 26 2015

 **SATELLITE DATA USED TO AUGMENT SKY COVER AT AUTOMATED STATIONS**
 *****  WEATHER ACROSS EASTERN NORTH DAKOTA  *****

CITY           SKY/WX    TMP DP  RH WIND       PRES   REMARKS
GRAND FORKS    CLOUDY    36  30  79 N22G30    29.82R
6HR MIN TEMP:  33; 6HR MAX TEMP:  40;

GRAND FRKS AFB CLOUDY    37  30  75 N17G24    29.85R
GRAND FRKS NWS   N/A     34 N/A N/A N21         N/A  WCI  22
DEVILS LAKE    SUNNY     37  30  75 NW14      29.88R
6HR MIN TEMP:  32; 6HR MAX TEMP:  37;

FARGO          PTSUNNY   43  33  68 NW18      29.82R
WAHPETON ARPT  CLEAR     41  32  70 NW16      29.82S
$$

 ***** WEATHER ACROSS CENTRAL AND WESTERN NORTH DAKOTA  *****

CITY           SKY/WX    TMP DP  RH WIND       PRES   REMARKS
BISMARCK       MOSUNNY   47  28  47 NW12      29.97R
6HR MIN TEMP:  37; 6HR MAX TEMP:  47;

MINOT          MOSUNNY   41  32  70 W13       29.94R
6HR MIN TEMP:  36; 6HR MAX TEMP:  41;

JAMESTOWN      SUNNY     40  31  70 NW22G31   29.88R
6HR MIN TEMP:  36; 6HR MAX TEMP:  40;

MINOT AFB      MOSUNNY   39  37  91 NW13      29.94R
GARRISON         N/A     42  34  73 NW14      29.96R
WILLISTON      MOSUNNY   46  31  55 W8        29.97F
6HR MIN TEMP:  32; 6HR MAX TEMP:  46;

DICKINSON      MOSUNNY   47  33  58 NW14      29.98R
6HR MIN TEMP:  34; 6HR MAX TEMP:  47;

HETTINGER      MOSUNNY   49  33  54 W10       30.02R
6HR MIN TEMP:  31; 6HR MAX TEMP:  49;

$$

 *****  OTHER AIRPORT OBSERVATIONS IN OUR AREA  *****

CITY           SKY/WX    TMP DP  RH WIND       PRES   REMARKS
WALHALLA         N/A     32  32 100 N17G26    29.88R WCI  21
GRAFTON AIRPOR NOT AVBL
VALLEY CITY AR FAIR      41  36  81 NW25G31   29.86R
CANDO          FAIR      39  32  75 NW17      29.89R
CAVALIER APRT  CLOUDY    30  27  86 N20G31    29.88R WCI  18
GWINNER        CLEAR     43  36  75 NW22      29.88R
SHEYENNE NWR     N/A     43  33  67 NW14      29.95S
ROLLA          FAIR      36  32  87 NW20      29.89R
 ***** THE ABOVE OBSERVATIONS ARE NON NWS ARE NOT QUALITY
       CONTROLLED AND MAY MIS-REPORT RAIN FOR SNOW...
$$

  *****  WEATHER ACROSS NORTHERN MINNESOTA  *****

CITY           SKY/WX    TMP DP  RH WIND       PRES   REMARKS
FLAG ISLAND    CLOUDY    28  25  86 N22       29.74R WCI  15
WARROAD        CLOUDY    30  28  93 NW14      29.76R WCI  20
ROSEAU         CLOUDY    32  27  80 NW20      29.77R WCI  20
HALLOCK        CLOUDY    30  27  86 N22G28    29.83R WCI  17
THF RVR FALLS  CLOUDY    34  28  80 NW22      29.77R WCI  22
6HR MIN TEMP:  32; 6HR MAX TEMP:  37;

BAUDETTE       CLOUDY    31  27  85 N17       29.71R WCI  19
6HR MIN TEMP:  30; 6HR MAX TEMP:  34; 6HR PCP: TRACE;

WASKISH        CLOUDY    36  30  80 NW9G16    29.70R
CROOKSTON      CLOUDY    34  28  80 N35       29.81R WCI  19
STEPHEN NDAWN    N/A     32  28  86 N18         N/A  WCI  20
GREENBUSH NDAW   N/A     30  28  93 NW20        N/A  WCI  18
$$
  *****  WEATHER ACROSS CENTRAL AND WEST MINNESOTA  *****

CITY           SKY/WX    TMP DP  RH WIND       PRES   REMARKS
FOSSTON        CLOUDY    34  28  80 NW24G30   29.76R WCI  21
BEMIDJI        CLOUDY    35  31  85 NW16G24   29.70R
PARK RAPIDS    CLOUDY    39  31  72 NW23G29   29.70R
6HR MIN TEMP:  29; 6HR MAX TEMP:  39; 6HR PCP: TRACE;

ELBOW LAKE     FAIR      38  32  81 NW16G24   29.79R
WADENA         PTSUNNY   37  30  75 NW16G24   29.73S
DETROIT LAKES  CLOUDY    36  32  87 NW17      29.77S
MOORHEAD       MOSUNNY   43  37  81 NW20      29.82R
FERGUS FALLS   MOSUNNY   37  30  75 NW15      29.82R
MORRIS MN      SUNNY     43  36  75 NW23G29   29.79R
STAPLES        CLOUDY    39  30  70 NW17      29.71S
$$
  *****  WEATHER ELSEWHERE ACROSS MINNESOTA  *****

CITY           SKY/WX    TMP DP  RH WIND       PRES   REMARKS
DULUTH         LGT SNOW  25  22  88 SW5       29.64R FOG     WCI  19
6HR MIN TEMP:  20; 6HR MAX TEMP:  25; 6HR PCP:  0.05;

INTRNTL FALLS  CLOUDY    30  25  81 NW14      29.66R WCI  19
6HR MIN TEMP:  23; 6HR MAX TEMP:  30; 6HR PCP:  0.02;

ELY            LGT SNOW  25  19  80 S3        29.64R
CLOQUET        CLOUDY    27  25  93 SW3       29.65S FOG
WHEATON        SUNNY     39  34  81 NW18G28   29.85R
BRAINERD       CLOUDY    40  31  70 NW15      29.69S
6HR MIN TEMP:  25; 6HR MAX TEMP:  39;

HIBBING        CLOUDY    27  23  85 CALM      29.64S FOG
6HR MIN TEMP:  22; 6HR MAX TEMP:  27; 6HR PCP:  0.01;

ALEXANDRIA     PTSUNNY   38  32  79 NW12      29.76R
6HR MIN TEMP:  31; 6HR MAX TEMP:  38;

SAINT CLOUD    MOSUNNY   41  32  70 NW16      29.72R
6HR MIN TEMP:  28; 6HR MAX TEMP:  42;

MINNEAPOLIS    PTSUNNY   41  31  67 NW13      29.72S
6HR MIN TEMP:  27; 6HR MAX TEMP:  41;

$$

  *****  WEATHER ACROSS SOUTH DAKOTA  *****

CITY           SKY/WX    TMP DP  RH WIND       PRES   REMARKS
SIOUX FALLS    MOSUNNY   45  37  73 NW20      29.89R
6HR MIN TEMP:  33; 6HR MAX TEMP:  45;

BROOKINGS      NOT AVBL
WATERTOWN      SUNNY     41  34  76 NW14      29.86R
6HR MIN TEMP:  33; 6HR MAX TEMP:  41;

HURON          SUNNY     47  37  68 NW22G32   29.93R
6HR MIN TEMP:  35; 6HR MAX TEMP:  47;

SISSETON         N/A     44  35  70 NW24G35   29.83R
ABERDEEN       SUNNY     45  35  68 NW14      29.93R
6HR MIN TEMP:  30; 6HR MAX TEMP:  45;

MITCHELL       SUNNY     49  38  65 NW20      29.95R
PIERRE         SUNNY     51  33  50 W15       30.00R
6HR MIN TEMP:  35; 6HR MAX TEMP:  51;

MOBRIDGE       SUNNY     49  36  61 W10       29.95R
RAPID CITY     MOSUNNY   65  29  25 NW16G24   30.07R
6HR MIN TEMP:  44; 6HR MAX TEMP:  65;

$$

  *****  SOME WEATHER IN NEARBY STATES *****

CITY           SKY/WX    TMP DP  RH WIND       PRES   REMARKS
GLASGOW MT     MOSUNNY   40  34  79 E3        29.98R
6HR MIN TEMP:  28; 6HR MAX TEMP:  40;

GREAT FALLS MT PTSUNNY   59  27  29 SW21      30.03R
6HR MIN TEMP:  50; 6HR MAX TEMP:  59;

CHEYENNE WY    SUNNY     62  19  19 NW24G32   30.28S
6HR MIN TEMP:  43; 6HR MAX TEMP:  62;

SCOTTSBLUFF NE SUNNY     53  34  48 NW9       30.19F
6HR MIN TEMP:  33; 6HR MAX TEMP:  53;

OMAHA NE       MOSUNNY   54  37  52 NW13      29.90S
6HR MIN TEMP:  27; 6HR MAX TEMP:  54;

DES MOINES IA  MOSUNNY   46  34  62 NW21      29.83R
6HR MIN TEMP:  32; 6HR MAX TEMP:  46;

DAVENPORT IA   CLOUDY    26  22  84 S14       29.84F WCI  14
6HR MIN TEMP:  19; 6HR MAX TEMP:  26; 6HR PCP:  0.04;

CHICAGO IL     CLOUDY    25  16  68 SW5       29.90F WCI  19
6HR MIN TEMP:  15; 6HR MAX TEMP:  25;

EAU CLAIRE WI  LGT SNOW  24  21  88 S7        29.72S FOG     WCI  16
6HR MIN TEMP:  20; 6HR MAX TEMP:  24; 6HR PCP:  0.01;

LA CROSSE WI   CLOUDY    26  22  84 S13       29.76F FOG     WCI  15
6HR MIN TEMP:  22; 6HR MAX TEMP:  26; 6HR PCP:  0.03;

$$

  *****  SOME NATIONAL WEATHER *****

CITY           SKY/WX    TMP DP  RH WIND       PRES   REMARKS
LA GUARDIA NY  LGT SNOW  23  19  86 NE18G30   29.91F VSB 1   WCI   9
6HR MIN TEMP:  22; 6HR MAX TEMP:  26; 6HR PCP: TRACE;

RALEIGH NC     CLOUDY    48  42  80 N3        29.62F
6HR MIN TEMP:  39; 6HR MAX TEMP:  48; 6HR PCP:  0.23;

ATLANTA GA     CLOUDY    43  34  70 NW17G24   29.85F
6HR MIN TEMP:  42; 6HR MAX TEMP:  45; 6HR PCP:  0.01;

NEW ORLEANS LA MOSUNNY   57  37  47 NW13      30.11F
6HR MIN TEMP:  48; 6HR MAX TEMP:  57;

OKLAHOMA CITY  SUNNY     62  34  35 W5        30.10F
6HR MIN TEMP:  28; 6HR MAX TEMP:  62;

ALBUQUERQUE NM MOSUNNY   42  26  53 CALM      30.40S
6HR MIN TEMP:  31; 6HR MAX TEMP:  43;

SALT LAKE CITY SUNNY     45  32  60 CALM      30.38S
6HR MIN TEMP:  31; 6HR MAX TEMP:  45;

LOS ANGELES CA PTSUNNY   70  39  32 VRB3      30.02R



USA.gov is the U.S. government's official web portal to all federal, state and local government web resources and services.